Harvey, ND

11:06 PM CDT on April 28, 2017 (GMT -0500)
Harvey

Weather History for K5H4 - March, 2014

Change the Weather History Date:

Sunday, March 2, 2014

  Actual Average (KRUG) Record (KRUG)
Temperature  
Mean Temperature -9 °F -  
Max Temperature 0 °F 27 °F 55 °F (1992)
Min Temperature -18 °F 7 °F -28 °F (1972)
Degree Days  
Heating Degree Days 74    
Moisture  
Dew Point -18 °F    
Average Humidity 65    
Maximum Humidity 84    
Minimum Humidity 54    
Precipitation  
Precipitation 0.00 in - - ()
Sea Level Pressure  
Sea Level Pressure 30.47 in    
Wind  
Wind Speed 13 mph (WNW)    
Max Wind Speed 20 mph    
Max Gust Speed 24 mph    
Visibility 10 miles    
Events      
Averages and records for this station are not official NWS values.
T = Trace of Precipitation, MM = Missing Value Source: NWS Daily Summary

Daily Weather History Graph

Daily Weather History Graph

Search for Another Location

Airport or City:

Trip Planner

Search our weather history database for the weather conditions in past years. The results will help you decide how hot, cold, wet, or windy it might be!

Date:

Astronomy

Mar. 02, 2014 Rise Set
Actual Time 7:18 AM CST 6:26 PM CST
Civil Twilight 6:47 AM CST 6:57 PM CST
Nautical Twilight 6:11 AM CST 7:32 PM CST
Astronomical Twilight 5:35 AM CST 8:08 PM CST
Moon 7:41 AM CST (3/2) 8:35 PM CST (3/2)
Length of Visible Light 12h 09m
Length of Day
11h 07m
Waxing Crescent, 3% of the Moon is Illuminated
Mar 2
Waxing Crescent
Mar 8
First Quarter
Mar 16
Full
Mar 23
Last Quarter
Mar 30
New

Hourly Weather History & Observations

Time (CST) Temp. Windchill Dew Point Humidity Pressure Visibility Wind Dir Wind Speed Gust Speed Precip Events Conditions
12:15 AM -16.6 °F -42.1 °F -25.6 °F 64% 30.49 in 10.0 mi WNW 17.3 mph - N/A   Clear
12:35 AM -16.6 °F -41.4 °F -25.6 °F 64% 30.49 in 10.0 mi WNW 16.1 mph - N/A   Clear
12:55 AM -16.6 °F -41.4 °F -25.6 °F 64% 30.49 in 10.0 mi WNW 16.1 mph 19.6 mph N/A   Clear
1:15 AM -16.6 °F -36.8 °F -25.6 °F 64% 30.49 in 10.0 mi WNW 10.4 mph - N/A   Clear
1:35 AM -16.6 °F -39.8 °F -25.6 °F 64% 30.49 in 10.0 mi West 13.8 mph - N/A   Clear
1:55 AM -16.6 °F -39.8 °F -25.6 °F 64% 30.50 in 10.0 mi West 13.8 mph - N/A   Clear
2:15 AM -16.6 °F -39.8 °F -25.6 °F 64% 30.50 in 10.0 mi West 13.8 mph - N/A   Clear
2:35 AM -16.6 °F -41.4 °F -25.6 °F 64% 30.49 in 10.0 mi WNW 16.1 mph 20.7 mph N/A   Clear
2:55 AM -16.6 °F -41.4 °F -25.6 °F 64% 30.49 in 10.0 mi West 16.1 mph 21.9 mph N/A   Clear
3:15 AM -16.6 °F -42.1 °F -25.6 °F 64% 30.49 in 10.0 mi West 17.3 mph - N/A   Clear
3:35 AM -18.4 °F -44.5 °F -25.6 °F 70% 30.48 in 10.0 mi WNW 17.3 mph 24.2 mph N/A   Clear
3:55 AM -18.4 °F -42.9 °F -25.6 °F 70% 30.48 in 10.0 mi WNW 15.0 mph - N/A   Clear
4:15 AM -18.4 °F -42.9 °F -25.6 °F 70% 30.47 in 10.0 mi WNW 15.0 mph - N/A   Clear
4:35 AM -18.4 °F -43.7 °F -27.4 °F 63% 30.47 in 10.0 mi West 16.1 mph 20.7 mph N/A   Clear
4:55 AM -18.4 °F -43.7 °F -27.4 °F 63% 30.48 in 10.0 mi WNW 16.1 mph 21.9 mph N/A   Clear
5:15 AM -18.4 °F -42.9 °F -27.4 °F 63% 30.48 in 10.0 mi WNW 15.0 mph 19.6 mph N/A   Clear
5:35 AM -18.4 °F -42.1 °F -27.4 °F 63% 30.48 in 10.0 mi WNW 13.8 mph 21.9 mph N/A   Clear
5:55 AM -18.4 °F -40.2 °F -27.4 °F 63% 30.48 in 10.0 mi West 11.5 mph 18.4 mph N/A   Clear
6:15 AM -18.4 °F -36.6 °F -27.4 °F 63% 30.48 in 10.0 mi WNW 8.1 mph - N/A   Clear
6:35 AM -18.4 °F -40.2 °F -27.4 °F 63% 30.48 in 10.0 mi WNW 11.5 mph - N/A   Clear
6:55 AM -18.4 °F -40.2 °F -27.4 °F 63% 30.48 in 10.0 mi West 11.5 mph - N/A   Clear
7:15 AM -18.4 °F -42.9 °F -27.4 °F 63% 30.48 in 10.0 mi West 15.0 mph - N/A   Clear
7:35 AM -18.4 °F -42.9 °F -27.4 °F 63% 30.48 in 10.0 mi West 15.0 mph - N/A   Clear
7:55 AM -18.4 °F -41.2 °F -25.6 °F 70% 30.48 in 10.0 mi West 12.7 mph - N/A   Clear
8:15 AM -16.6 °F -37.9 °F -25.6 °F 64% 30.49 in 10.0 mi West 11.5 mph 18.4 mph N/A   Clear
8:35 AM -16.6 °F -39.8 °F -25.6 °F 64% 30.48 in 10.0 mi WNW 13.8 mph - N/A   Clear
8:55 AM -14.8 °F -38.3 °F -25.6 °F 58% 30.49 in 10.0 mi WNW 15.0 mph - N/A   Clear
9:15 AM -13.0 °F -34.3 °F -23.8 °F 59% 30.50 in 10.0 mi WNW 12.7 mph 20.7 mph N/A   Clear
9:35 AM - - - N/A% 30.49 in 10.0 mi WNW 17.3 mph - N/A   Clear
9:55 AM -11.2 °F -34.4 °F -22.0 °F 59% 30.49 in 10.0 mi WNW 16.1 mph - N/A   Clear
10:15 AM -9.4 °F -31.4 °F -22.0 °F 54% 30.50 in 10.0 mi WNW 15.0 mph - N/A   Clear
10:35 AM -9.4 °F -32.8 °F -20.2 °F 59% 30.50 in 10.0 mi WNW 17.3 mph 23.0 mph N/A   Clear
10:55 AM -7.6 °F -31.1 °F -20.2 °F 54% 30.50 in 10.0 mi WNW 18.4 mph - N/A   Clear
11:15 AM -7.6 °F -31.1 °F -18.4 °F 59% 30.50 in 10.0 mi WNW 18.4 mph - N/A   Clear
11:35 AM -5.8 °F -29.4 °F -18.4 °F 55% 30.50 in 10.0 mi NW 19.6 mph 24.2 mph N/A   Clear
11:55 AM -4.0 °F -25.2 °F -16.6 °F 55% 30.49 in 10.0 mi NW 16.1 mph - N/A   Clear
12:15 PM -4.0 °F -24.5 °F -16.6 °F 55% 30.49 in 10.0 mi NW 15.0 mph - N/A   Clear
12:35 PM -4.0 °F -26.4 °F -14.8 °F 60% 30.49 in 10.0 mi NW 18.4 mph - N/A   Clear
12:55 PM -2.2 °F -23.5 °F -14.8 °F 55% 30.49 in 10.0 mi WNW 17.3 mph 21.9 mph N/A   Clear
1:15 PM -2.2 °F -22.9 °F -13.0 °F 60% 30.48 in 10.0 mi WNW 16.1 mph 23.0 mph N/A   Clear
1:35 PM -2.2 °F -22.9 °F -13.0 °F 60% 30.48 in 10.0 mi NW 16.1 mph - N/A   Clear
1:55 PM -0.4 °F -20.5 °F -13.0 °F 55% 30.47 in 10.0 mi NW 16.1 mph - N/A   Clear
2:15 PM -0.4 °F -19.9 °F - N/A% 30.48 in 10.0 mi NW 15.0 mph 20.7 mph N/A   Clear
2:35 PM -0.4 °F -19.9 °F -11.2 °F 60% 30.47 in 10.0 mi NW 15.0 mph - N/A   Clear
2:55 PM -0.4 °F -18.4 °F -11.2 °F 60% 30.48 in 10.0 mi WNW 12.7 mph - N/A   Clear
3:15 PM -0.4 °F -19.2 °F -9.4 °F 66% 30.47 in 10.0 mi NW 13.8 mph - N/A   Clear
3:35 PM -0.4 °F -19.9 °F -11.2 °F 60% 30.46 in 10.0 mi NW 15.0 mph - N/A   Clear
3:55 PM -0.4 °F -18.4 °F -9.4 °F 66% 30.45 in 10.0 mi NW 12.7 mph - N/A   Clear
4:15 PM -0.4 °F -18.4 °F -9.4 °F 66% 30.45 in 10.0 mi NW 12.7 mph - N/A   Clear
4:35 PM -0.4 °F -18.4 °F -9.4 °F 66% 30.45 in 10.0 mi NW 12.7 mph - N/A   Clear
4:55 PM -0.4 °F -15.7 °F -9.4 °F 66% 30.45 in 10.0 mi NW 9.2 mph - N/A   Clear
5:15 PM -0.4 °F -15.7 °F -9.4 °F 66% 30.45 in 10.0 mi NW 9.2 mph - N/A   Clear
5:35 PM -0.4 °F -13.4 °F -9.4 °F 66% 30.45 in 10.0 mi NW 6.9 mph - N/A   Clear
5:55 PM -2.2 °F -15.6 °F -9.4 °F 71% 30.45 in 10.0 mi NW 6.9 mph - N/A   Clear
6:15 PM -2.2 °F -12.5 °F -9.4 °F 71% 30.45 in 10.0 mi NNW 4.6 mph - N/A   Clear
6:35 PM -2.2 °F -10.4 °F -9.4 °F 71% 30.45 in 10.0 mi NW 3.5 mph - N/A   Clear
6:55 PM -2.2 °F -10.4 °F -9.4 °F 71% 30.44 in 10.0 mi NNW 3.5 mph - N/A   Clear
7:15 PM -2.2 °F -10.4 °F -9.4 °F 71% 30.44 in 10.0 mi NNW 3.5 mph - N/A   Clear
7:35 PM -4.0 °F -12.4 °F -11.2 °F 71% 30.44 in 10.0 mi NW 3.5 mph - N/A   Clear
7:55 PM -4.0 °F - -11.2 °F 71% 30.45 in 10.0 mi Calm Calm - N/A   Clear
8:15 PM -4.0 °F -12.4 °F -11.2 °F 71% 30.44 in 10.0 mi WNW 3.5 mph - N/A   Clear
8:35 PM -4.0 °F - -11.2 °F 71% 30.43 in 10.0 mi Calm Calm - N/A   Clear
8:55 PM -5.8 °F -14.5 °F - N/A% 30.43 in 10.0 mi WSW 3.5 mph - N/A   Clear
9:15 PM -5.8 °F -14.5 °F -11.2 °F 77% 30.42 in 10.0 mi WSW 3.5 mph - N/A   Clear
9:35 PM -5.8 °F -16.7 °F -11.2 °F 77% 30.43 in 10.0 mi SW 4.6 mph - N/A   Clear
9:55 PM -7.6 °F -18.8 °F -11.2 °F 84% 30.42 in 10.0 mi West 4.6 mph - N/A   Clear
10:15 PM -7.6 °F -16.5 °F -13.0 °F 77% 30.42 in 10.0 mi WSW 3.5 mph - N/A   Clear
10:35 PM -7.6 °F -16.5 °F -13.0 °F 77% 30.41 in 10.0 mi WSW 3.5 mph - N/A   Clear
10:55 PM -7.6 °F -16.5 °F -13.0 °F 77% 30.41 in 10.0 mi WSW 3.5 mph - N/A   Clear
11:55 PM -7.6 °F -16.5 °F - N/A% 30.39 in 10.0 mi SSW 3.5 mph - N/A   Clear